Dewpoint
37 40 40 40 40 39 40 40 41 42 43 42 41 41 42 40 40 34 34 31 31 33
36 38 39 40 40 40 40 42 42 41 41 41 40 41 41 41 40 38 36 34 32 32
35 37 40 40 39 39 40 42 41 41 40 40 40 40 41 40 40 40 39 37 35 34
35 36 39 39 39 39 40 40 42 41 40 40 40 40 40 40 40 40 40 40 39 39
34 35 37 38 38 39 39 41 41 41 40 39 39 40 39 39 39 40 39 39 40 39
34 34 34 36 34 35 37 38 40 40 39 40 40 40 40 39 38 38 38 39 37 38
33 33 33 34 33 33 34 36 38 40 40 40 39 40 40 40 40 39 38 39 38 37
32 32 33 33 32 32 33 34 36 37 40 40 40 41 40 40 40 39 39 39 39 39
32 32 32 32 32 31 32 32 34 36 39 40 40 44 43 41 41 40 39 38 38 38
32 32 32 32 31 31 31 31 32 33 37 39 40 44 44 44 42 40 39 39 40 39
32 32 32 32 31 31 31 31 30 31 34 38 38 42 43 42 38 37 37 37 37 38
32 32 32 32 31 31 31 30 30 30 30 36 37 38 39 39 38 38 39 39 38 38
31 32 32 32 32 32 31 30 30 29 30 33 34 38 36 35 35 35 35 38 39 40
31 30 31 32 33 32 29 28 28 30 29 29 32 33 37 36 31 32 33 34 37 38
Lifted_Index
11 11 11 11 10 10 10 10 10 10 10 9 10 10 9 7 6 5 6 6 6 6
12 12 12 11 11 10 10 10 10 10 10 10 10 9 8 7 6 5 5 5 5 5
13 13 13 12 11 10 10 10 9 10 10 9 9 9 8 7 6 5 5 5 5 5
13 13 13 12 11 10 9 9 9 9 9 9 9 8 8 7 6 4 4 4 4 4
13 13 13 12 11 10 9 9 8 8 8 8 8 8 8 7 6 4 4 4 4 4
12 12 12 12 11 10 9 8 8 7 7 7 7 7 7 7 6 5 4 4 4 4
12 12 12 12 11 10 9 9 8 7 7 6 6 6 6 6 6 4 4 3 4 5
12 12 12 12 11 10 9 8 8 7 7 6 5 5 5 5 5 4 4 4 4 5
13 13 12 12 10 9 9 8 8 7 7 7 6 5 4 4 4 4 4 4 5 5
13 13 13 12 11 10 9 8 8 8 7 7 6 5 5 4 4 4 4 5 5 5
13 13 12 12 11 10 10 9 9 8 7 7 7 6 6 6 6 6 6 6 6 6
13 13 12 12 11 11 10 10 10 9 8 8 7 7 7 8 8 8 7 7 7 7
13 12 12 11 11 11 10 10 10 10 9 9 8 8 9 9 9 9 9 8 8 8
12 12 11 11 11 11 11 11 11 11 10 10 9 9 9 10 10 10 9 8 8 8